CZ-6A DEB

Satellite information

Favourite Embed

Satellite Type and Status

DEBRISIN ORBIT

Key statistics

Satellite CZ-6A DEB at a glance.

Uptime

1128

Days in orbit

Revolutions

≈ 14.2

Per day

Orbit

SSO

Sun Synchronous Orbit

Inclination

98.8

Latest

Satellite identification and parameters

Extended collection of information and parameters for CZ-6A DEB.

Object identification

Identified? True

Debris? True

Object name: CZ-6A DEB

International designator: 2022-151AFV

Object number (NORAD): 56645

Object ID (CCSDS): 56645

Country: PEOPLES REPUBLIC OF CHINA (PRC)

Current information (Y/N): Y

RCS size: SMALL

Orbital parameters

Period: 101.547 minutes

Inclination: 98.8014 deg

SMA: 7210.062 km

Apoapsis: 861.707 km

Periapsis: 802.148 km

RAAN: 347.1542 deg

Eccentricy: 0.00413023

Argument of periapsis: 163.726 deg

Mean anomaly: 196.5252 deg

Mean motion: 14.18058774 rev/day

Mean motion (dot): 0.0000312 rev/day2

B* drag term: 0.0015297228 1/REarth

Two-line elements (TLE)

Creation date: Dec. 10, 2025, 10:40 a.m.

Reference frame: TEME

Reference center: EARTH

Epoch: Dec. 9, 2025, 6 p.m. UTC

TLE line 0: 0 CZ-6A DEB

TLE line 1: 1 56645U 22151AFV 25343.75056704 .00003120 00000-0 15297-2 0 9990

TLE line 2: 2 56645 98.8014 347.1542 0041302 163.7260 196.5252 14.18058774136082

Live tracking on map

Real-time ground track for satellite CZ-6A DEB.

In-orbit conjunctions

A list of the most updated potential collisions computed for object CZ-6A DEB.

Target Orbit TCA Probability of collision Miss distance Type
CZ-6A DEB LEO 2025-03-03 00:41:31 0.0002312899 177.0 (m) DEBRIS
MINOTAUR R/B SSO 2025-02-09 09:57:15 0.0001524741 520.0 (m) ROCKET BODY
FENGYUN 1C DEB SSO 2024-06-07 04:25:14 0.0001255336 73.0 (m) DEBRIS

Associated space launch

Chinese satellite reported for atmospheric/ocean/environmental/spatial parameter research purposes, details TBD.

CZ-6A DEB was lifted into orbit during the mission ‘Long March 6A | Yunhai 3’, on board a Long March 6A space rocket.

The launch took place on Nov. 11, 2022, 10:52 p.m. from Launch Complex 9A.

For more information about the launch, click the button.

Launch to space Long March 6A | Yunhai 3
Long March 6A | Yunhai 3

Agency: N/A

Status: Launch Successful

Launch date: Nov. 11, 2022, 10:52 p.m. UTC

Rocket: Long March 6A

Launch pad: Launch Complex 9A

Location: Taiyuan Satellite Launch Center, People's Republic of China

...

Latest news about this satellite

There are no fresh news available about this satellite. Check back as we update our databases every day.


Newsletter sign-up

Weekly statistics, charts and insights to help you stay on top of the space industry.